Estación de Recoleta
Ultimos registro cada 15 minutos 76
| N° | Estación | Fecha / Hora | Temperatura | Humedad | Lluvia | Velocidad | Dirección | Radiación | Presion |
| 76 | Recoleta | 09-05-2026 18:45 | 12,8 | 68,7 | 0 | 0 | 153 | 0,6 | 968,3 |
| 75 | Recoleta | 09-05-2026 18:30 | 13,4 | 65,9 | 0 | 0 | 183 | 0,6 | 968,3 |
| 74 | Recoleta | 09-05-2026 18:15 | 14,9 | 60,9 | 0 | 0,3 | 192 | 0,6 | 968 |
| 73 | Recoleta | 09-05-2026 18:00 | 15,6 | 58,6 | 0 | 0,3 | 187 | 5,6 | 968 |
| 72 | Recoleta | 09-05-2026 17:45 | 16 | 57,3 | 0 | 0,3 | 167 | 11,9 | 967,9 |
| 71 | Recoleta | 09-05-2026 17:30 | 16,8 | 53,9 | 0 | 0,3 | 152 | 15,6 | 967,8 |
| 70 | Recoleta | 09-05-2026 17:15 | 17,8 | 50,4 | 0 | 0,3 | 160 | 20,6 | 967,8 |
| 69 | Recoleta | 09-05-2026 17:00 | 19,2 | 47,4 | 0 | 0,7 | 160 | 65,6 | 967,7 |
| 68 | Recoleta | 09-05-2026 16:45 | 19,5 | 47,1 | 0 | 1 | 156 | 99,4 | 967,7 |
| 67 | Recoleta | 09-05-2026 16:30 | 20 | 46,7 | 0 | 1,3 | 153 | 151,9 | 967,9 |
| 66 | Recoleta | 09-05-2026 16:15 | 20,1 | 45,5 | 0 | 1 | 163 | 68,1 | 967,7 |
| 65 | Recoleta | 09-05-2026 16:00 | 19,8 | 46,3 | 0 | 1,3 | 153 | 225,6 | 967,6 |
| 64 | Recoleta | 09-05-2026 15:45 | 20,2 | 45,1 | 0 | 1,3 | 157 | 279,4 | 967,7 |
| 63 | Recoleta | 09-05-2026 15:30 | 19,9 | 45,2 | 0 | 1,3 | 143 | 324,4 | 967,6 |
| 62 | Recoleta | 09-05-2026 15:15 | 19,9 | 45,8 | 0 | 1,7 | 136 | 361,9 | 967,6 |
| 61 | Recoleta | 09-05-2026 15:00 | 20,1 | 44,6 | 0 | 1,7 | 143 | 400,6 | 967,8 |
| 60 | Recoleta | 09-05-2026 14:45 | 20,7 | 43,8 | 0 | 1,7 | 138 | 439,4 | 967,6 |
| 59 | Recoleta | 09-05-2026 14:30 | 20,5 | 44,3 | 0 | 1,7 | 128 | 473,1 | 967,7 |
| 58 | Recoleta | 09-05-2026 14:15 | 20,5 | 44,4 | 0 | 1,3 | 132 | 505,6 | 967,9 |
| 57 | Recoleta | 09-05-2026 14:00 | 20,7 | 44,3 | 0 | 1 | 129 | 538,1 | 968 |
| 56 | Recoleta | 09-05-2026 13:45 | 20,2 | 44,9 | 0 | 1 | 133 | 563,1 | 968,4 |
| 55 | Recoleta | 09-05-2026 13:30 | 19,8 | 45,2 | 0 | 1,3 | 128 | 583,1 | 968,5 |
| 54 | Recoleta | 09-05-2026 13:15 | 19,7 | 46,1 | 0 | 1 | 139 | 604,4 | 968,9 |
| 53 | Recoleta | 09-05-2026 13:00 | 19,3 | 47,4 | 0 | 1 | 138 | 616,9 | 969,2 |
| 52 | Recoleta | 09-05-2026 12:45 | 18,4 | 49,3 | 0 | 1 | 140 | 629,4 | 969,5 |
| 51 | Recoleta | 09-05-2026 12:30 | 18,1 | 50,9 | 0 | 1,3 | 129 | 631,9 | 969,5 |
| 50 | Recoleta | 09-05-2026 12:15 | 17,2 | 52,7 | 0 | 1,7 | 132 | 634,4 | 969,8 |
| 49 | Recoleta | 09-05-2026 12:00 | 16,3 | 55,2 | 0 | 1,7 | 133 | 629,4 | 970 |
| 48 | Recoleta | 09-05-2026 11:45 | 16,2 | 55,9 | 0 | 1,3 | 135 | 624,4 | 969,9 |
| 47 | Recoleta | 09-05-2026 11:30 | 15,5 | 58,9 | 0 | 1,7 | 128 | 611,9 | 970,1 |
| 46 | Recoleta | 09-05-2026 11:15 | 15 | 61,4 | 0 | 1,3 | 135 | 596,9 | 970,2 |
| 45 | Recoleta | 09-05-2026 11:00 | 14,9 | 61,1 | 0 | 1 | 133 | 38,1 | 969,9 |
| 44 | Recoleta | 09-05-2026 10:45 | 14,3 | 61,1 | 0 | 1 | 136 | 36,9 | 970,1 |
| 43 | Recoleta | 09-05-2026 10:30 | 13,9 | 61,9 | 0 | 1 | 139 | 39,4 | 970,1 |
| 42 | Recoleta | 09-05-2026 10:15 | 14,4 | 62,8 | 0 | 0,7 | 147 | 500,6 | 970 |
| 41 | Recoleta | 09-05-2026 10:00 | 13,3 | 66,1 | 0 | 0,7 | 146 | 73,1 | 970 |
| 40 | Recoleta | 09-05-2026 09:45 | 13 | 63,6 | 0 | 0,3 | 145 | 36,9 | 969,9 |
| 39 | Recoleta | 09-05-2026 09:30 | 12,2 | 62,1 | 0 | 0,3 | 150 | 60,6 | 970,2 |
| 38 | Recoleta | 09-05-2026 09:15 | 12 | 66 | 0 | 0 | 204 | 354,4 | 970 |
| 37 | Recoleta | 09-05-2026 09:00 | 11 | 69,6 | 0 | 0 | 298 | 303,1 | 970,1 |
| 36 | Recoleta | 09-05-2026 08:45 | 11 | 65,6 | 0 | 0 | 310 | 263,1 | 969,9 |
| 35 | Recoleta | 09-05-2026 08:30 | 10,3 | 66,8 | 0 | 0 | 310 | 214,4 | 969,9 |
| 34 | Recoleta | 09-05-2026 08:15 | 8,7 | 78,4 | 0 | 0 | 309 | 161,9 | 969,8 |
| 33 | Recoleta | 09-05-2026 08:00 | 5,7 | 85,3 | 0 | 0 | 309 | 24,4 | 969,5 |
| 32 | Recoleta | 09-05-2026 07:45 | 4 | 86 | 0 | 0 | 310 | 46,9 | 969,5 |
| 31 | Recoleta | 09-05-2026 07:30 | 3,9 | 84,5 | 0 | 0 | 312 | 4,4 | 969,2 |
| 30 | Recoleta | 09-05-2026 07:15 | 3,9 | 83,2 | 0 | 0 | 312 | 0,6 | 969,3 |
| 29 | Recoleta | 09-05-2026 07:00 | 3,5 | 83,6 | 0 | 0 | 312 | 0,6 | 968,9 |
| 28 | Recoleta | 09-05-2026 06:45 | 3,1 | 80,6 | 0 | 0 | 312 | 0,6 | 968,9 |
| 27 | Recoleta | 09-05-2026 06:30 | 3,5 | 77,8 | 0 | 0 | 312 | 0,6 | 968,6 |
| 26 | Recoleta | 09-05-2026 06:15 | 4,2 | 76,9 | 0 | 0 | 241 | 0,6 | 968,6 |
| 25 | Recoleta | 09-05-2026 06:00 | 3,6 | 75,6 | 0 | 0 | 174 | 0,6 | 968,4 |
| 24 | Recoleta | 09-05-2026 05:45 | 3,9 | 74,7 | 0 | 0 | 173 | 0,6 | 968,1 |
| 23 | Recoleta | 09-05-2026 05:30 | 4,5 | 71,5 | 0 | 0 | 166 | 0,6 | 967,9 |
| 22 | Recoleta | 09-05-2026 05:15 | 5,1 | 69,3 | 0 | 0 | 154 | 0,6 | 967,9 |
| 21 | Recoleta | 09-05-2026 05:00 | 6,3 | 63 | 0 | 0,3 | 147 | 0,6 | 967,9 |
| 20 | Recoleta | 09-05-2026 04:45 | 4,9 | 70,9 | 0 | 0 | 302 | 0,6 | 967,8 |
| 19 | Recoleta | 09-05-2026 04:30 | 4,6 | 73,7 | 0 | 0 | 303 | 0,6 | 967,5 |
| 18 | Recoleta | 09-05-2026 04:15 | 4,5 | 74,3 | 0 | 0 | 303 | 0,6 | 967,4 |
| 17 | Recoleta | 09-05-2026 04:00 | 4,4 | 75,3 | 0 | 0 | 303 | 0,6 | 967,4 |
| 16 | Recoleta | 09-05-2026 03:45 | 4,7 | 74 | 0 | 0 | 305 | 0,6 | 967,6 |
| 15 | Recoleta | 09-05-2026 03:30 | 5,1 | 72,6 | 0 | 0 | 307 | 0,6 | 967,7 |
| 14 | Recoleta | 09-05-2026 03:15 | 5,2 | 73,5 | 0 | 0 | 299 | 0,6 | 967,7 |
| 13 | Recoleta | 09-05-2026 03:00 | 5,7 | 68,3 | 0 | 0 | 298 | 0,6 | 967,9 |
| 12 | Recoleta | 09-05-2026 02:45 | 5,1 | 72,8 | 0 | 0 | 298 | 0,6 | 967,8 |
| 11 | Recoleta | 09-05-2026 02:30 | 5,2 | 73 | 0 | 0 | 299 | 0,6 | 968,1 |
| 10 | Recoleta | 09-05-2026 02:15 | 5,5 | 71,4 | 0 | 0 | 299 | 0,6 | 968 |
| 9 | Recoleta | 09-05-2026 02:00 | 5,9 | 69,3 | 0 | 0 | 300 | 0,6 | 968 |
| 8 | Recoleta | 09-05-2026 01:45 | 6,3 | 68,7 | 0 | 0 | 302 | 0,6 | 968,2 |
| 7 | Recoleta | 09-05-2026 01:30 | 6,4 | 68,1 | 0 | 0 | 307 | 0,6 | 968,4 |
| 6 | Recoleta | 09-05-2026 01:15 | 6,6 | 67,7 | 0 | 0 | 307 | 0,6 | 968,4 |
| 5 | Recoleta | 09-05-2026 01:00 | 7,3 | 64,7 | 0 | 0 | 306 | 0,6 | 968,6 |
| 4 | Recoleta | 09-05-2026 00:45 | 6,7 | 67,3 | 0 | 0 | 305 | 0,6 | 968,9 |
| 3 | Recoleta | 09-05-2026 00:30 | 6,8 | 68,1 | 0 | 0 | 309 | 0,6 | 968,9 |
| 2 | Recoleta | 09-05-2026 00:15 | 6,8 | 66,2 | 0 | 0 | 312 | 0,6 | 969,2 |
| 1 | Recoleta | 09-05-2026 00:00 | 7,7 | 63,8 | 0 | 0 | 307 | 0,6 | 969,3 |